Time,TemperatureF,DewpointF,PressureIn,WindDirection,WindDirectionDegrees,WindSpeedMPH,WindSpeedGustMPH,Humidity,HourlyPrecipIn,Conditions,Clouds,dailyrainin,SoftwareType,DateUTC
2013-10-24 00:01:00,49.1,38.3,29.68,NNW,338,18.0,23.0,66,0.00,,,0.00,meteohub,2013-10-24 04:01:00,
2013-10-24 00:02:00,48.9,38.5,29.68,North,0,12.0,23.0,67,0.00,,,0.00,meteohub,2013-10-24 04:02:00,
2013-10-24 00:05:00,48.7,38.3,29.68,North,0,16.0,23.0,67,0.00,,,0.00,meteohub,2013-10-24 04:05:00,
2013-10-24 00:07:00,48.7,38.3,29.68,North,0,16.0,23.0,67,0.00,,,0.00,meteohub,2013-10-24 04:07:00,
2013-10-24 00:12:00,48.7,38.3,29.68,North,0,16.0,23.0,67,0.00,,,0.00,meteohub,2013-10-24 04:12:00,
2013-10-24 00:17:00,48.7,38.3,29.68,North,0,16.0,18.0,67,0.00,,,0.00,meteohub,2013-10-24 04:17:00,
2013-10-24 00:22:00,48.7,38.3,29.68,NNW,338,13.0,16.0,67,0.00,,,0.00,meteohub,2013-10-24 04:22:00,
2013-10-24 00:27:00,48.6,38.1,29.69,North,0,15.0,16.0,67,0.00,,,0.00,meteohub,2013-10-24 04:27:00,
2013-10-24 00:33:00,48.6,38.1,29.69,NNW,338,16.0,21.0,67,0.00,,,0.00,meteohub,2013-10-24 04:33:00,
2013-10-24 00:38:00,48.4,37.9,29.69,NNE,23,19.0,21.0,67,0.00,,,0.00,meteohub,2013-10-24 04:38:00,
2013-10-24 00:43:00,48.4,37.9,29.69,NNW,338,14.0,21.0,67,0.00,,,0.00,meteohub,2013-10-24 04:43:00,
2013-10-24 00:48:00,48.4,37.6,29.69,NNW,338,18.0,19.0,66,0.00,,,0.00,meteohub,2013-10-24 04:48:00,
2013-10-24 00:53:00,48.2,38.1,29.69,NNE,23,11.0,19.0,68,0.00,,,0.00,meteohub,2013-10-24 04:53:00,
2013-10-24 00:59:00,48.0,37.6,29.69,NNW,338,13.0,18.0,67,0.00,,,0.00,meteohub,2013-10-24 04:59:00,
2013-10-24 01:04:00,48.0,37.9,29.70,North,0,17.0,18.0,68,0.00,,,0.00,meteohub,2013-10-24 05:04:00,
2013-10-24 01:09:00,47.7,37.6,29.70,NNE,23,16.0,18.0,68,0.00,,,0.00,meteohub,2013-10-24 05:09:00,
2013-10-24 01:14:00,47.7,37.2,29.70,NNE,23,14.0,18.0,67,0.00,,,0.00,meteohub,2013-10-24 05:14:00,
2013-10-24 01:20:00,47.7,37.6,29.70,NNE,23,16.0,18.0,68,0.00,,,0.00,meteohub,2013-10-24 05:20:00,
2013-10-24 01:25:00,47.5,37.8,29.70,NNW,338,14.0,20.0,69,0.00,,,0.00,meteohub,2013-10-24 05:25:00,
2013-10-24 01:31:00,47.7,37.9,29.70,NNE,23,16.0,20.0,69,0.00,,,0.00,meteohub,2013-10-24 05:31:00,
2013-10-24 01:37:00,47.7,37.9,29.70,WNW,293,15.0,20.0,69,0.00,,,0.00,meteohub,2013-10-24 05:37:00,
2013-10-24 01:42:00,47.3,37.6,29.70,NNW,338,17.0,18.0,69,0.00,,,0.00,meteohub,2013-10-24 05:42:00,
2013-10-24 01:47:00,47.3,37.6,29.70,NNW,338,16.0,17.0,69,0.00,,,0.00,meteohub,2013-10-24 05:47:00,
2013-10-24 01:52:00,47.3,37.6,29.70,NNE,23,13.0,17.0,69,0.00,,,0.00,meteohub,2013-10-24 05:52:00,
2013-10-24 01:57:00,47.3,37.6,29.70,WNW,293,17.0,17.0,69,0.00,,,0.00,meteohub,2013-10-24 05:57:00,
2013-10-24 02:02:00,47.1,37.4,29.70,NW,315,18.0,18.0,69,0.00,,,0.00,meteohub,2013-10-24 06:02:00,
2013-10-24 02:07:00,47.3,37.6,29.71,NW,315,12.0,18.0,69,0.00,,,0.00,meteohub,2013-10-24 06:07:00,
2013-10-24 02:12:00,46.9,37.6,29.71,NNE,23,14.0,18.0,70,0.00,,,0.00,meteohub,2013-10-24 06:12:00,
2013-10-24 02:17:00,46.9,37.6,29.71,NNW,338,12.0,18.0,70,0.00,,,0.00,meteohub,2013-10-24 06:17:00,
2013-10-24 02:23:00,46.9,38.1,29.71,NNE,23,12.0,17.0,71,0.00,,,0.00,meteohub,2013-10-24 06:23:00,
2013-10-24 02:28:00,46.8,37.9,29.71,NNE,23,9.0,18.0,71,0.00,,,0.00,meteohub,2013-10-24 06:28:00,
2013-10-24 02:33:00,46.8,37.9,29.71,North,0,19.0,19.0,71,0.00,,,0.00,meteohub,2013-10-24 06:33:00,
2013-10-24 02:42:00,46.8,38.3,29.71,NNW,338,19.0,19.0,72,0.00,,,0.00,meteohub,2013-10-24 06:42:00,
2013-10-24 02:47:00,46.6,38.1,29.71,NNE,23,17.0,25.0,72,0.00,,,0.00,meteohub,2013-10-24 06:47:00,
2013-10-24 02:52:00,46.4,37.9,29.71,NNW,338,16.0,25.0,72,0.00,,,0.00,meteohub,2013-10-24 06:52:00,
2013-10-24 02:57:00,46.6,38.1,29.71,NW,315,18.0,25.0,72,0.00,,,0.00,meteohub,2013-10-24 06:57:00,
2013-10-24 03:02:00,46.4,37.9,29.71,NNE,23,14.0,21.0,72,0.00,,,0.00,meteohub,2013-10-24 07:02:00,
2013-10-24 03:07:00,46.4,37.9,29.71,NNE,23,18.0,21.0,72,0.00,,,0.00,meteohub,2013-10-24 07:07:00,
2013-10-24 03:12:00,46.4,37.9,29.71,NNE,23,18.0,18.0,72,0.00,,,0.00,meteohub,2013-10-24 07:12:00,
2013-10-24 03:17:00,46.4,37.9,29.71,NNE,23,18.0,18.0,72,0.00,,,0.00,meteohub,2013-10-24 07:17:00,
2013-10-24 03:22:00,46.4,38.3,29.71,NNW,338,19.0,19.0,73,0.00,,,0.00,meteohub,2013-10-24 07:22:00,
2013-10-24 03:27:00,46.2,38.1,29.71,NNW,338,16.0,21.0,73,0.00,,,0.00,meteohub,2013-10-24 07:27:00,
2013-10-24 03:32:00,46.2,38.5,29.71,North,0,13.0,21.0,74,0.00,,,0.00,meteohub,2013-10-24 07:32:00,
2013-10-24 03:37:00,46.2,38.5,29.71,NNE,23,18.0,19.0,74,0.00,,,0.00,meteohub,2013-10-24 07:37:00,
2013-10-24 03:42:00,46.0,37.9,29.71,SW,225,14.0,19.0,73,0.00,,,0.00,meteohub,2013-10-24 07:42:00,
2013-10-24 03:47:00,45.9,38.1,29.72,NNE,23,13.0,23.0,74,0.00,,,0.00,meteohub,2013-10-24 07:47:00,
2013-10-24 03:52:00,45.7,37.9,29.72,NNW,338,13.0,23.0,74,0.00,,,0.00,meteohub,2013-10-24 07:52:00,
2013-10-24 03:57:00,45.5,37.8,29.72,North,0,17.0,23.0,74,0.00,,,0.00,meteohub,2013-10-24 07:57:00,
2013-10-24 04:02:00,45.5,38.1,29.72,NW,315,15.0,21.0,75,0.00,,,0.00,meteohub,2013-10-24 08:02:00,
2013-10-24 04:07:00,45.3,37.9,29.73,NNW,338,12.0,18.0,75,0.00,,,0.00,meteohub,2013-10-24 08:07:00,
2013-10-24 04:12:00,45.5,38.3,29.73,NNW,338,19.0,19.0,76,0.00,,,0.00,meteohub,2013-10-24 08:12:00,
2013-10-24 04:17:00,45.3,38.1,29.73,NNE,23,10.0,22.0,76,0.00,,,0.00,meteohub,2013-10-24 08:17:00,
2013-10-24 04:22:00,45.1,37.8,29.73,North,0,11.0,22.0,75,0.00,,,0.00,meteohub,2013-10-24 08:22:00,
2013-10-24 04:27:00,45.1,37.8,29.75,ESE,113,19.0,22.0,75,0.00,,,0.00,meteohub,2013-10-24 08:27:00,
2013-10-24 04:32:00,44.8,37.4,29.75,NNW,338,9.0,20.0,75,0.00,,,0.00,meteohub,2013-10-24 08:32:00,
2013-10-24 04:37:00,44.6,37.2,29.75,NNW,338,9.0,19.0,75,0.00,,,0.00,meteohub,2013-10-24 08:37:00,
2013-10-24 04:42:00,44.6,37.2,29.75,NNE,23,16.0,19.0,75,0.00,,,0.00,meteohub,2013-10-24 08:42:00,
2013-10-24 04:47:00,44.4,37.0,29.75,NNW,338,17.0,18.0,75,0.00,,,0.00,meteohub,2013-10-24 08:47:00,
2013-10-24 04:52:00,44.4,37.0,29.75,NW,315,10.0,18.0,75,0.00,,,0.00,meteohub,2013-10-24 08:52:00,
2013-10-24 04:57:00,44.4,37.0,29.75,North,0,17.0,18.0,75,0.00,,,0.00,meteohub,2013-10-24 08:57:00,
2013-10-24 05:02:00,44.2,36.9,29.75,NNE,23,14.0,17.0,75,0.00,,,0.00,meteohub,2013-10-24 09:02:00,
2013-10-24 05:07:00,44.2,36.9,29.76,North,0,12.0,17.0,75,0.00,,,0.00,meteohub,2013-10-24 09:07:00,
2013-10-24 05:12:00,44.2,36.9,29.76,NNE,23,20.0,20.0,75,0.00,,,0.00,meteohub,2013-10-24 09:12:00,
2013-10-24 05:17:00,44.4,37.0,29.76,NNE,23,25.0,25.0,75,0.00,,,0.00,meteohub,2013-10-24 09:17:00,
2013-10-24 05:22:00,44.1,36.3,29.76,NNE,23,21.0,25.0,74,0.00,,,0.00,meteohub,2013-10-24 09:22:00,
2013-10-24 05:27:00,44.1,36.7,29.77,NNW,338,15.0,25.0,75,0.00,,,0.00,meteohub,2013-10-24 09:27:00,
2013-10-24 05:32:00,43.9,36.5,29.77,NW,315,11.0,25.0,75,0.00,,,0.00,meteohub,2013-10-24 09:32:00,
2013-10-24 05:37:00,44.1,36.3,29.77,NNE,23,17.0,21.0,74,0.00,,,0.00,meteohub,2013-10-24 09:37:00,
2013-10-24 05:42:00,43.7,36.0,29.77,NW,315,16.0,18.0,74,0.00,,,0.00,meteohub,2013-10-24 09:42:00,
2013-10-24 05:47:00,43.7,36.3,29.78,NNE,23,16.0,18.0,75,0.00,,,0.00,meteohub,2013-10-24 09:47:00,
2013-10-24 05:52:00,43.7,36.3,29.78,NNE,23,22.0,22.0,75,0.00,,,0.00,meteohub,2013-10-24 09:52:00,
2013-10-24 05:57:00,43.5,36.1,29.78,NNE,23,20.0,22.0,75,0.00,,,0.00,meteohub,2013-10-24 09:57:00,
2013-10-24 06:02:00,43.5,36.1,29.78,NNE,23,20.0,22.0,75,0.00,,,0.00,meteohub,2013-10-24 10:02:00,
2013-10-24 06:07:00,43.5,36.1,29.78,NNW,338,19.0,22.0,75,0.00,,,0.00,meteohub,2013-10-24 10:07:00,
2013-10-24 06:12:00,43.5,36.1,29.78,NNW,338,19.0,20.0,75,0.00,,,0.00,meteohub,2013-10-24 10:12:00,
2013-10-24 06:17:00,43.5,36.1,29.78,North,0,20.0,20.0,75,0.00,,,0.00,meteohub,2013-10-24 10:17:00,
2013-10-24 06:22:00,43.3,36.3,29.78,NNW,338,26.0,26.0,76,0.00,,,0.00,meteohub,2013-10-24 10:22:00,
2013-10-24 06:27:00,43.3,36.0,29.78,NNE,23,17.0,26.0,75,0.00,,,0.00,meteohub,2013-10-24 10:27:00,
2013-10-24 06:32:00,43.0,36.0,29.78,NNW,338,19.0,26.0,76,0.00,,,0.00,meteohub,2013-10-24 10:32:00,
2013-10-24 06:37:00,43.2,36.1,29.78,North,0,18.0,26.0,76,0.00,,,0.00,meteohub,2013-10-24 10:37:00,
2013-10-24 06:42:00,43.2,36.1,29.78,NNW,338,14.0,19.0,76,0.00,,,0.00,meteohub,2013-10-24 10:42:00,
2013-10-24 06:47:00,43.2,35.8,29.80,NNE,23,19.0,22.0,75,0.00,,,0.00,meteohub,2013-10-24 10:47:00,
2013-10-24 06:52:00,43.0,36.0,29.80,NNE,23,16.0,22.0,76,0.00,,,0.00,meteohub,2013-10-24 10:52:00,
2013-10-24 06:57:00,42.8,35.4,29.80,NNE,23,13.0,19.0,75,0.00,,,0.00,meteohub,2013-10-24 10:57:00,
2013-10-24 07:02:00,42.6,35.6,29.80,NNE,23,14.0,19.0,76,0.00,,,0.00,meteohub,2013-10-24 11:02:00,
2013-10-24 07:07:00,42.8,35.8,29.81,NNE,23,13.0,16.0,76,0.00,,,0.00,meteohub,2013-10-24 11:07:00,
2013-10-24 07:12:00,42.6,35.6,29.81,NNE,23,15.0,16.0,76,0.00,,,0.00,meteohub,2013-10-24 11:12:00,
2013-10-24 07:17:00,42.4,35.1,29.81,NNE,23,13.0,15.0,75,0.00,,,0.00,meteohub,2013-10-24 11:17:00,
2013-10-24 07:22:00,42.4,35.4,29.81,NNE,23,16.0,16.0,76,0.00,,,0.00,meteohub,2013-10-24 11:22:00,
2013-10-24 07:27:00,42.6,35.6,29.82,NNE,23,14.0,16.0,76,0.00,,,0.00,meteohub,2013-10-24 11:27:00,
2013-10-24 07:32:00,42.6,35.6,29.82,North,0,16.0,17.0,76,0.00,,,0.00,meteohub,2013-10-24 11:32:00,
2013-10-24 07:37:00,42.6,35.6,29.82,North,0,24.0,24.0,76,0.00,,,0.00,meteohub,2013-10-24 11:37:00,
2013-10-24 07:42:00,42.6,35.2,29.82,NNW,338,13.0,24.0,75,0.00,,,0.00,meteohub,2013-10-24 11:42:00,
2013-10-24 07:47:00,42.6,35.2,29.84,North,0,10.0,24.0,75,0.00,,,0.00,meteohub,2013-10-24 11:47:00,
2013-10-24 07:52:00,42.8,35.4,29.84,North,0,13.0,24.0,75,0.00,,,0.00,meteohub,2013-10-24 11:52:00,
2013-10-24 07:57:00,42.8,35.4,29.84,North,0,15.0,19.0,75,0.00,,,0.00,meteohub,2013-10-24 11:57:00,
2013-10-24 08:02:00,42.8,35.1,29.84,North,0,17.0,19.0,74,0.00,,,0.00,meteohub,2013-10-24 12:02:00,
2013-10-24 08:07:00,43.0,35.2,29.85,NW,315,9.0,17.0,74,0.00,,,0.00,meteohub,2013-10-24 12:07:00,
2013-10-24 08:12:00,43.0,35.2,29.85,NNW,338,17.0,17.0,74,0.00,,,0.00,meteohub,2013-10-24 12:12:00,
2013-10-24 08:17:00,43.2,35.4,29.85,WSW,248,15.0,17.0,74,0.00,,,0.00,meteohub,2013-10-24 12:17:00,
2013-10-24 08:22:00,43.5,35.8,29.85,NNW,338,20.0,21.0,74,0.00,,,0.00,meteohub,2013-10-24 12:22:00,
2013-10-24 08:27:00,43.7,35.6,29.86,NNE,23,20.0,21.0,73,0.00,,,0.00,meteohub,2013-10-24 12:27:00,
2013-10-24 08:32:00,44.1,36.0,29.86,NNW,338,17.0,21.0,73,0.00,,,0.00,meteohub,2013-10-24 12:32:00,
2013-10-24 08:37:00,44.1,36.0,29.86,North,0,15.0,20.0,73,0.00,,,0.00,meteohub,2013-10-24 12:37:00,
2013-10-24 08:42:00,44.2,36.1,29.86,North,0,11.0,20.0,73,0.00,,,0.00,meteohub,2013-10-24 12:42:00,
2013-10-24 08:47:00,44.4,36.3,29.86,North,0,17.0,19.0,73,0.00,,,0.00,meteohub,2013-10-24 12:47:00,
2013-10-24 08:52:00,44.8,36.7,29.86,North,0,5.0,19.0,73,0.00,,,0.00,meteohub,2013-10-24 12:52:00,
2013-10-24 08:57:00,44.8,36.7,29.86,North,0,13.0,19.0,73,0.00,,,0.00,meteohub,2013-10-24 12:57:00,
2013-10-24 09:02:00,45.0,36.5,29.86,NW,315,9.0,17.0,72,0.00,,,0.00,meteohub,2013-10-24 13:02:00,
2013-10-24 09:07:00,45.0,36.1,29.87,NW,315,13.0,17.0,71,0.00,,,0.00,meteohub,2013-10-24 13:07:00,
2013-10-24 09:12:00,45.0,36.1,29.87,NNW,338,15.0,17.0,71,0.00,,,0.00,meteohub,2013-10-24 13:12:00,
2013-10-24 09:17:00,45.1,36.3,29.87,NNW,338,15.0,16.0,71,0.00,,,0.00,meteohub,2013-10-24 13:17:00,
2013-10-24 09:22:00,45.3,36.5,29.87,SW,225,14.0,17.0,71,0.00,,,0.00,meteohub,2013-10-24 13:22:00,
2013-10-24 09:27:00,45.5,36.7,29.87,NNE,23,14.0,17.0,71,0.00,,,0.00,meteohub,2013-10-24 13:27:00,
2013-10-24 09:32:00,45.7,36.9,29.87,North,0,16.0,17.0,71,0.00,,,0.00,meteohub,2013-10-24 13:32:00,
2013-10-24 09:37:00,45.7,36.5,29.87,NNW,338,17.0,18.0,70,0.00,,,0.00,meteohub,2013-10-24 13:37:00,
2013-10-24 09:42:00,45.9,36.3,29.87,North,0,8.0,18.0,69,0.00,,,0.00,meteohub,2013-10-24 13:42:00,
2013-10-24 09:47:00,46.0,35.8,29.86,NNW,338,16.0,18.0,67,0.00,,,0.00,meteohub,2013-10-24 13:47:00,
2013-10-24 09:52:00,46.2,36.0,29.86,North,0,9.0,18.0,67,0.00,,,0.00,meteohub,2013-10-24 13:52:00,
2013-10-24 09:57:00,46.6,35.8,29.86,North,0,16.0,18.0,66,0.00,,,0.00,meteohub,2013-10-24 13:57:00,
2013-10-24 10:02:00,46.4,35.6,29.86,NNE,23,15.0,16.0,66,0.00,,,0.00,meteohub,2013-10-24 14:02:00,
2013-10-24 10:07:00,46.6,35.1,29.87,North,0,14.0,20.0,64,0.00,,,0.00,meteohub,2013-10-24 14:07:00,
2013-10-24 10:12:00,46.9,35.1,29.87,WNW,293,23.0,23.0,63,0.00,,,0.00,meteohub,2013-10-24 14:12:00,
2013-10-24 10:17:00,47.1,35.2,29.87,NNE,23,18.0,23.0,63,0.00,,,0.00,meteohub,2013-10-24 14:17:00,
2013-10-24 10:22:00,47.3,35.4,29.87,NW,315,13.0,23.0,63,0.00,,,0.00,meteohub,2013-10-24 14:22:00,
2013-10-24 10:27:00,47.1,34.7,29.87,NW,315,15.0,23.0,62,0.00,,,0.00,meteohub,2013-10-24 14:27:00,
2013-10-24 10:32:00,47.7,34.9,29.87,NNW,338,18.0,18.0,61,0.00,,,0.00,meteohub,2013-10-24 14:32:00,
2013-10-24 10:37:00,47.5,34.3,29.87,North,0,13.0,18.0,60,0.00,,,0.00,meteohub,2013-10-24 14:37:00,
2013-10-24 10:42:00,47.3,33.3,29.87,North,0,15.0,18.0,58,0.00,,,0.00,meteohub,2013-10-24 14:42:00,
2013-10-24 10:47:00,47.7,32.7,29.90,North,0,22.0,22.0,56,0.00,,,0.00,meteohub,2013-10-24 14:47:00,
2013-10-24 10:52:00,47.7,32.4,29.90,NNE,23,14.0,22.0,55,0.00,,,0.00,meteohub,2013-10-24 14:52:00,
2013-10-24 10:57:00,47.5,31.6,29.90,NNW,338,20.0,22.0,54,0.00,,,0.00,meteohub,2013-10-24 14:57:00,
2013-10-24 11:02:00,47.8,32.0,29.90,WNW,293,11.0,22.0,54,0.00,,,0.00,meteohub,2013-10-24 15:02:00,
2013-10-24 11:07:00,47.8,31.5,29.96,NW,315,19.0,20.0,53,0.00,,,0.00,meteohub,2013-10-24 15:07:00,
2013-10-24 11:12:00,48.4,32.5,29.96,WNW,293,9.0,20.0,54,0.00,,,0.00,meteohub,2013-10-24 15:12:00,
2013-10-24 11:17:00,48.4,31.6,29.96,NW,315,17.0,19.0,52,0.00,,,0.00,meteohub,2013-10-24 15:17:00,
2013-10-24 12:57:00,51.6,32.5,29.84,NW,315,15.0,22.0,48,0.00,,,0.00,meteohub,2013-10-24 16:57:00,
2013-10-24 13:02:00,52.0,32.4,29.84,NW,315,13.0,18.0,47,0.00,,,0.00,meteohub,2013-10-24 17:02:00,
2013-10-24 13:07:00,52.2,32.0,29.84,NNE,23,10.0,17.0,46,0.00,,,0.00,meteohub,2013-10-24 17:07:00,
2013-10-24 13:13:00,52.3,32.2,29.84,NW,315,15.0,21.0,46,0.00,,,0.00,meteohub,2013-10-24 17:13:00,
2013-10-24 13:18:00,52.3,31.6,29.84,NW,315,23.0,23.0,45,0.00,,,0.00,meteohub,2013-10-24 17:18:00,
2013-10-24 13:23:00,52.7,32.5,29.84,NNW,338,11.0,23.0,46,0.00,,,0.00,meteohub,2013-10-24 17:23:00,
2013-10-24 13:28:00,52.7,33.1,29.83,NW,315,15.0,23.0,47,0.00,,,0.00,meteohub,2013-10-24 17:28:00,
2013-10-24 13:33:00,52.9,33.3,29.83,NNW,338,16.0,24.0,47,0.00,,,0.00,meteohub,2013-10-24 17:33:00,
2013-10-24 13:38:00,53.4,33.1,29.83,NNW,338,14.0,24.0,46,0.00,,,0.00,meteohub,2013-10-24 17:38:00,
2013-10-24 13:43:00,53.1,32.9,29.83,North,0,19.0,19.0,46,0.00,,,0.00,meteohub,2013-10-24 17:43:00,
2013-10-24 13:49:00,53.2,33.4,29.83,NW,315,14.0,18.0,47,0.00,,,0.00,meteohub,2013-10-24 17:49:00,
2013-10-24 13:54:00,53.8,33.4,29.83,NNE,23,12.0,22.0,46,0.00,,,0.00,meteohub,2013-10-24 17:54:00,
2013-10-24 13:59:00,53.6,32.2,29.83,NW,315,15.0,22.0,44,0.00,,,0.00,meteohub,2013-10-24 17:59:00,
2013-10-24 14:04:00,53.6,33.3,29.83,NW,315,18.0,18.0,46,0.00,,,0.00,meteohub,2013-10-24 18:04:00,
2013-10-24 14:09:00,54.0,33.6,29.83,NW,315,16.0,18.0,46,0.00,,,0.00,meteohub,2013-10-24 18:09:00,
2013-10-24 14:14:00,54.3,34.5,29.83,NW,315,12.0,25.0,47,0.00,,,0.00,meteohub,2013-10-24 18:14:00,
2013-10-24 14:19:00,54.9,33.4,29.83,NNW,338,23.0,25.0,44,0.00,,,0.00,meteohub,2013-10-24 18:19:00,
2013-10-24 14:24:00,55.2,33.6,29.83,NW,315,15.0,25.0,44,0.00,,,0.00,meteohub,2013-10-24 18:24:00,
2013-10-24 14:29:00,56.3,34.2,29.83,NNW,338,26.0,26.0,43,0.00,,,0.00,meteohub,2013-10-24 18:29:00,
2013-10-24 14:35:00,55.9,34.3,29.83,West,270,13.0,24.0,44,0.00,,,0.00,meteohub,2013-10-24 18:35:00,
2013-10-24 14:40:00,55.8,31.8,29.83,NNW,338,17.0,26.0,40,0.00,,,0.00,meteohub,2013-10-24 18:40:00,
2013-10-24 14:45:00,55.9,32.0,29.82,North,0,16.0,26.0,40,0.00,,,0.00,meteohub,2013-10-24 18:45:00,
2013-10-24 14:50:00,55.9,32.5,29.82,NW,315,17.0,24.0,41,0.00,,,0.00,meteohub,2013-10-24 18:50:00,
2013-10-24 14:55:00,56.1,32.2,29.82,NNW,338,14.0,20.0,40,0.00,,,0.00,meteohub,2013-10-24 18:55:00,
2013-10-24 15:00:00,56.3,31.6,29.82,NW,315,10.0,20.0,39,0.00,,,0.00,meteohub,2013-10-24 19:00:00,
2013-10-24 15:05:00,55.9,32.0,29.83,North,0,14.0,20.0,40,0.00,,,0.00,meteohub,2013-10-24 19:05:00,
2013-10-24 15:11:00,55.9,32.0,29.83,NNW,338,21.0,21.0,40,0.00,,,0.00,meteohub,2013-10-24 19:11:00,
2013-10-24 15:16:00,55.9,32.0,29.83,NNW,338,10.0,21.0,40,0.00,,,0.00,meteohub,2013-10-24 19:16:00,
2013-10-24 15:21:00,55.8,31.8,29.83,NNE,23,17.0,21.0,40,0.00,,,0.00,meteohub,2013-10-24 19:21:00,
2013-10-24 15:26:00,55.6,31.6,29.83,NNW,338,13.0,21.0,40,0.00,,,0.00,meteohub,2013-10-24 19:26:00,
2013-10-24 15:31:00,55.8,31.8,29.83,NNW,338,16.0,17.0,40,0.00,,,0.00,meteohub,2013-10-24 19:31:00,
2013-10-24 15:37:00,55.9,33.3,29.83,NNW,338,12.0,17.0,42,0.00,,,0.00,meteohub,2013-10-24 19:37:00,
2013-10-24 15:42:00,56.7,32.5,29.83,NNW,338,18.0,19.0,40,0.00,,,0.00,meteohub,2013-10-24 19:42:00,
2013-10-24 15:47:00,56.8,33.4,29.83,NW,315,17.0,19.0,41,0.00,,,0.00,meteohub,2013-10-24 19:47:00,
2013-10-24 15:52:00,57.0,32.9,29.83,NE,45,12.0,19.0,40,0.00,,,0.00,meteohub,2013-10-24 19:52:00,
2013-10-24 15:57:00,57.0,32.9,29.83,North,0,18.0,22.0,40,0.00,,,0.00,meteohub,2013-10-24 19:57:00,
2013-10-24 16:02:00,57.2,33.1,29.83,NW,315,8.0,22.0,40,0.00,,,0.00,meteohub,2013-10-24 20:02:00,
2013-10-24 16:07:00,57.4,33.3,29.84,NW,315,19.0,22.0,40,0.00,,,0.00,meteohub,2013-10-24 20:07:00,
2013-10-24 16:12:00,55.8,31.8,29.84,NNW,338,20.0,20.0,40,0.00,,,0.00,meteohub,2013-10-24 20:12:00,
2013-10-24 16:17:00,55.2,32.0,29.84,NNW,338,14.0,23.0,41,0.00,,,0.00,meteohub,2013-10-24 20:17:00,
2013-10-24 16:22:00,55.2,32.0,29.84,NW,315,15.0,23.0,41,0.00,,,0.00,meteohub,2013-10-24 20:22:00,
2013-10-24 16:27:00,55.2,32.0,29.83,NNW,338,16.0,23.0,41,0.00,,,0.00,meteohub,2013-10-24 20:27:00,
2013-10-24 16:32:00,54.7,31.5,29.83,NNW,338,23.0,23.0,41,0.00,,,0.00,meteohub,2013-10-24 20:32:00,
2013-10-24 16:37:00,54.3,31.1,29.83,NW,315,14.0,23.0,41,0.00,,,0.00,meteohub,2013-10-24 20:37:00,
2013-10-24 16:42:00,54.9,31.6,29.83,NW,315,17.0,23.0,41,0.00,,,0.00,meteohub,2013-10-24 20:42:00,
2013-10-24 16:47:00,54.7,32.0,29.84,NW,315,9.0,23.0,42,0.00,,,0.00,meteohub,2013-10-24 20:47:00,
2013-10-24 16:52:00,54.3,32.4,29.84,NNW,338,16.0,17.0,43,0.00,,,0.00,meteohub,2013-10-24 20:52:00,
2013-10-24 16:57:00,53.8,32.4,29.84,NNW,338,12.0,17.0,44,0.00,,,0.00,meteohub,2013-10-24 20:57:00,
2013-10-24 17:02:00,53.1,31.6,29.84,NW,315,13.0,16.0,44,0.00,,,0.00,meteohub,2013-10-24 21:02:00,
2013-10-24 17:07:00,52.5,30.7,29.86,North,0,14.0,16.0,43,0.00,,,0.00,meteohub,2013-10-24 21:07:00,
2013-10-24 17:12:00,52.7,30.7,29.86,NNE,23,9.0,14.0,43,0.00,,,0.00,meteohub,2013-10-24 21:12:00,
2013-10-24 17:17:00,52.3,30.6,29.86,NW,315,15.0,15.0,43,0.00,,,0.00,meteohub,2013-10-24 21:17:00,
2013-10-24 17:23:00,52.3,30.6,29.86,NNW,338,11.0,19.0,43,0.00,,,0.00,meteohub,2013-10-24 21:23:00,
2013-10-24 17:28:00,52.3,30.6,29.85,NNW,338,12.0,19.0,43,0.00,,,0.00,meteohub,2013-10-24 21:28:00,
2013-10-24 17:33:00,52.3,31.1,29.85,North,0,7.0,19.0,44,0.00,,,0.00,meteohub,2013-10-24 21:33:00,
2013-10-24 17:38:00,52.2,32.0,29.85,NW,315,10.0,19.0,46,0.00,,,0.00,meteohub,2013-10-24 21:38:00,
2013-10-24 17:43:00,51.8,32.2,29.85,West,270,18.0,19.0,47,0.00,,,0.00,meteohub,2013-10-24 21:43:00,
2013-10-24 17:48:00,51.8,32.7,29.85,NW,315,8.0,19.0,48,0.00,,,0.00,meteohub,2013-10-24 21:48:00,
2013-10-24 17:54:00,51.4,32.9,29.85,West,270,11.0,19.0,49,0.00,,,0.00,meteohub,2013-10-24 21:54:00,
2013-10-24 17:59:00,51.3,33.3,29.85,WNW,293,4.0,19.0,50,0.00,,,0.00,meteohub,2013-10-24 21:59:00,
2013-10-24 18:04:00,51.1,33.6,29.86,North,0,10.0,11.0,51,0.00,,,0.00,meteohub,2013-10-24 22:04:00,
2013-10-24 18:10:00,50.9,32.4,29.86,NNW,338,9.0,10.0,49,0.00,,,0.00,meteohub,2013-10-24 22:10:00,
2013-10-24 18:17:00,51.3,31.1,29.86,NNW,338,18.0,18.0,46,0.00,,,0.00,meteohub,2013-10-24 22:17:00,
2013-10-24 18:22:00,51.4,31.3,29.86,NNW,338,11.0,18.0,46,0.00,,,0.00,meteohub,2013-10-24 22:22:00,
2013-10-24 18:27:00,51.4,31.3,29.87,NNW,338,12.0,18.0,46,0.00,,,0.00,meteohub,2013-10-24 22:27:00,
2013-10-24 18:32:00,51.3,31.1,29.87,NNW,338,13.0,18.0,46,0.00,,,0.00,meteohub,2013-10-24 22:32:00,
2013-10-24 18:37:00,51.3,31.1,29.87,NW,315,13.0,19.0,46,0.00,,,0.00,meteohub,2013-10-24 22:37:00,
2013-10-24 18:42:00,50.9,31.8,29.87,NNW,338,15.0,19.0,48,0.00,,,0.00,meteohub,2013-10-24 22:42:00,
2013-10-24 18:47:00,50.9,31.8,29.87,North,0,14.0,19.0,48,0.00,,,0.00,meteohub,2013-10-24 22:47:00,
2013-10-24 18:52:00,50.7,31.8,29.87,North,0,11.0,15.0,48,0.00,,,0.00,meteohub,2013-10-24 22:52:00,
2013-10-24 18:57:00,50.7,31.8,29.87,NNW,338,10.0,15.0,48,0.00,,,0.00,meteohub,2013-10-24 22:57:00,
2013-10-24 19:02:00,50.9,30.9,29.87,NNW,338,20.0,20.0,46,0.00,,,0.00,meteohub,2013-10-24 23:02:00,
2013-10-24 19:07:00,50.7,30.7,29.88,NNE,23,20.0,20.0,46,0.00,,,0.00,meteohub,2013-10-24 23:07:00,
2013-10-24 19:12:00,50.7,31.3,29.88,NNW,338,18.0,20.0,47,0.00,,,0.00,meteohub,2013-10-24 23:12:00,
2013-10-24 19:17:00,50.9,30.9,29.88,NNE,23,27.0,27.0,46,0.00,,,0.00,meteohub,2013-10-24 23:17:00,
2013-10-24 19:22:00,50.7,31.3,29.88,NW,315,16.0,27.0,47,0.00,,,0.00,meteohub,2013-10-24 23:22:00,
2013-10-24 19:27:00,50.7,31.8,29.88,NNW,338,14.0,27.0,48,0.00,,,0.00,meteohub,2013-10-24 23:27:00,
2013-10-24 19:32:00,50.7,32.2,29.88,NNW,338,28.0,28.0,49,0.00,,,0.00,meteohub,2013-10-24 23:32:00,
2013-10-24 19:37:00,50.7,32.2,29.88,North,0,26.0,28.0,49,0.00,,,0.00,meteohub,2013-10-24 23:37:00,
2013-10-24 19:42:00,50.5,32.5,29.88,NW,315,20.0,28.0,50,0.00,,,0.00,meteohub,2013-10-24 23:42:00,
2013-10-24 19:47:00,50.5,32.5,29.89,NNW,338,21.0,28.0,50,0.00,,,0.00,meteohub,2013-10-24 23:47:00,
2013-10-24 19:52:00,50.4,32.4,29.89,NW,315,14.0,26.0,50,0.00,,,0.00,meteohub,2013-10-24 23:52:00,
2013-10-24 19:57:00,50.5,32.0,29.89,NNW,338,21.0,21.0,49,0.00,,,0.00,meteohub,2013-10-24 23:57:00,
2013-10-24 20:03:00,50.5,31.6,29.89,North,0,21.0,21.0,48,0.00,,,0.00,meteohub,2013-10-25 00:03:00,
2013-10-24 20:08:00,50.5,32.0,29.89,NNW,338,15.0,25.0,49,0.00,,,0.00,meteohub,2013-10-25 00:08:00,
2013-10-24 20:14:00,50.2,32.7,29.89,NNW,338,19.0,25.0,51,0.00,,,0.00,meteohub,2013-10-25 00:14:00,
2013-10-24 20:22:00,50.0,32.5,29.89,NNW,338,20.0,21.0,51,0.00,,,0.00,meteohub,2013-10-25 00:22:00,
2013-10-24 20:28:00,50.0,32.5,29.89,NW,315,16.0,23.0,51,0.00,,,0.00,meteohub,2013-10-25 00:28:00,
2013-10-24 20:33:00,49.8,32.4,29.89,NNW,338,25.0,28.0,51,0.00,,,0.00,meteohub,2013-10-25 00:33:00,
2013-10-24 20:39:00,49.8,32.0,29.89,NNW,338,21.0,28.0,50,0.00,,,0.00,meteohub,2013-10-25 00:39:00,
2013-10-24 20:47:00,49.6,31.8,29.90,NW,315,21.0,25.0,50,0.00,,,0.00,meteohub,2013-10-25 00:47:00,
2013-10-24 20:53:00,49.6,32.2,29.90,NW,315,19.0,30.0,51,0.00,,,0.00,meteohub,2013-10-25 00:53:00,
2013-10-24 20:58:00,49.5,32.5,29.90,NNE,23,15.0,30.0,52,0.00,,,0.00,meteohub,2013-10-25 00:58:00,
2013-10-24 21:03:00,49.5,32.0,29.90,North,0,12.0,27.0,51,0.00,,,0.00,meteohub,2013-10-25 01:03:00,
2013-10-24 21:09:00,49.5,32.5,29.91,NNW,338,19.0,27.0,52,0.00,,,0.00,meteohub,2013-10-25 01:09:00,
2013-10-24 21:14:00,49.3,32.4,29.91,NNW,338,21.0,27.0,52,0.00,,,0.00,meteohub,2013-10-25 01:14:00,
2013-10-24 21:19:00,49.3,32.4,29.91,NW,315,20.0,23.0,52,0.00,,,0.00,meteohub,2013-10-25 01:19:00,
2013-10-24 21:25:00,49.3,32.4,29.91,NW,315,23.0,23.0,52,0.00,,,0.00,meteohub,2013-10-25 01:25:00,
2013-10-24 21:30:00,49.3,32.9,29.91,NNW,338,16.0,23.0,53,0.00,,,0.00,meteohub,2013-10-25 01:30:00,
2013-10-24 21:36:00,49.3,32.9,29.91,North,0,17.0,23.0,53,0.00,,,0.00,meteohub,2013-10-25 01:36:00,
2013-10-24 21:41:00,49.3,32.9,29.91,NW,315,22.0,28.0,53,0.00,,,0.00,meteohub,2013-10-25 01:41:00,
2013-10-24 21:46:00,49.3,32.4,29.92,NNW,338,21.0,28.0,52,0.00,,,0.00,meteohub,2013-10-25 01:46:00,
2013-10-24 21:51:00,49.3,32.9,29.92,NNE,23,12.0,22.0,53,0.00,,,0.00,meteohub,2013-10-25 01:51:00,
2013-10-24 21:56:00,49.3,32.9,29.92,NNE,23,19.0,22.0,53,0.00,,,0.00,meteohub,2013-10-25 01:56:00,
2013-10-24 22:02:00,49.3,32.9,29.92,North,0,16.0,21.0,53,0.00,,,0.00,meteohub,2013-10-25 02:02:00,
2013-10-24 22:07:00,49.5,33.1,29.92,NNW,338,29.0,29.0,53,0.00,,,0.00,meteohub,2013-10-25 02:07:00,
2013-10-24 22:12:00,49.3,33.3,29.92,NW,315,21.0,29.0,54,0.00,,,0.00,meteohub,2013-10-25 02:12:00,
2013-10-24 22:17:00,49.1,33.3,29.92,ESE,113,26.0,29.0,54,0.00,,,0.00,meteohub,2013-10-25 02:17:00,
2013-10-24 22:22:00,49.1,33.6,29.92,NNW,338,32.0,32.0,55,0.00,,,0.00,meteohub,2013-10-25 02:22:00,
2013-10-24 22:27:00,48.7,33.3,29.92,NNW,338,21.0,32.0,55,0.00,,,0.00,meteohub,2013-10-25 02:27:00,
2013-10-24 22:32:00,48.7,33.8,29.92,NW,315,27.0,32.0,56,0.00,,,0.00,meteohub,2013-10-25 02:32:00,
2013-10-24 22:37:00,48.6,32.7,29.92,NNW,338,25.0,32.0,54,0.00,,,0.00,meteohub,2013-10-25 02:37:00,
2013-10-24 22:42:00,48.6,33.1,29.92,NNW,338,20.0,27.0,55,0.00,,,0.00,meteohub,2013-10-25 02:42:00,
2013-10-24 22:47:00,48.7,33.3,29.93,NNW,338,23.0,28.0,55,0.00,,,0.00,meteohub,2013-10-25 02:47:00,
2013-10-24 22:52:00,48.4,33.4,29.93,NNW,338,19.0,28.0,56,0.00,,,0.00,meteohub,2013-10-25 02:52:00,
2013-10-24 22:57:00,48.4,32.9,29.93,NW,315,17.0,23.0,55,0.00,,,0.00,meteohub,2013-10-25 02:57:00,
2013-10-24 23:02:00,48.2,33.6,29.93,NNW,338,13.0,23.0,57,0.00,,,0.00,meteohub,2013-10-25 03:02:00,
2013-10-24 23:07:00,48.0,33.1,29.93,NNW,338,16.0,23.0,56,0.00,,,0.00,meteohub,2013-10-25 03:07:00,
2013-10-24 23:12:00,47.8,32.9,29.93,NNW,338,23.0,23.0,56,0.00,,,0.00,meteohub,2013-10-25 03:12:00,
2013-10-24 23:17:00,47.8,32.9,29.93,NNW,338,21.0,26.0,56,0.00,,,0.00,meteohub,2013-10-25 03:17:00,
2013-10-24 23:22:00,47.7,33.6,29.93,North,0,15.0,26.0,58,0.00,,,0.00,meteohub,2013-10-25 03:22:00,
2013-10-24 23:27:00,47.7,33.6,29.93,NNE,23,17.0,25.0,58,0.00,,,0.00,meteohub,2013-10-25 03:27:00,
2013-10-24 23:32:00,47.5,33.4,29.93,NNW,338,12.0,21.0,58,0.00,,,0.00,meteohub,2013-10-25 03:32:00,
2013-10-24 23:37:00,47.3,33.3,29.93,NW,315,10.0,20.0,58,0.00,,,0.00,meteohub,2013-10-25 03:37:00,
2013-10-24 23:42:00,47.3,32.9,29.93,North,0,16.0,20.0,57,0.00,,,0.00,meteohub,2013-10-25 03:42:00,
2013-10-24 23:47:00,47.1,33.1,29.93,NNW,338,19.0,22.0,58,0.00,,,0.00,meteohub,2013-10-25 03:47:00,
2013-10-24 23:52:00,47.3,33.3,29.93,NNE,23,25.0,25.0,58,0.00,,,0.00,meteohub,2013-10-25 03:52:00,
2013-10-24 23:57:00,47.1,32.7,29.93,NNE,23,25.0,25.0,57,0.00,,,0.00,meteohub,2013-10-25 03:57:00,